Regional Weather Roundup
Issued by NWS

Home | Current Version | Previous Version | Text Only | Print | Product List | Glossary Off
Versions: 1 2 3 4 5 6 7 8 9 10 11 12 13 14 15 16 17 18 19 20 21 22 23 24 25 26 27 28 29 30 31 32 33 34 35 36 37 38 39 40 41 42 43 44 45 46 47 48 49 50

000
ASUS43 KOAX 270510
RWRNE

WEATHER ROUNDUP FOR NEBRASKA
NATIONAL WEATHER SERVICE OMAHA NE
1100 PM CST FRI DEC 26 2014

NOTES: SATELLITE DATA IS BEING USED TO AUGMENT CLOUD COVER ABOVE
       12000 FEET.
       "FAIR" INDICATES FEW OR NO CLOUDS BELOW 12,000 FEET WITH NO
       SIGNIFICANT WEATHER AND/OR OBSTRUCTIONS TO VISIBILITY.

  * THESE STATIONS DO NOT REPORT WEATHER SUCH AS RAIN...SNOW OR FOG.

NEZ001>004-019>022-054>056-270600-
NEBRASKA PANHANDLE

CITY           SKY/WX    TMP DP  RH WIND       PRES   REMARKS
SCOTTSBLUFF    LGT SNOW  17  14  88 W7        30.11R FOG     WCI   8
ALLIANCE       LGT SNOW  17  14  88 CALM      30.09S FOG
CHADRON        CLOUDY    19  14  81 CALM      30.14S
KIMBALL        LGT SNOW  14  12  91 W7        30.05R WCI   4
SIDNEY         CLOUDY    13  10  88 W8        30.10R WCI   2
$$

NEZ057>060-069>072-079>082-270600-
SOUTHWEST NEBRASKA

CITY           SKY/WX    TMP DP  RH WIND       PRES   REMARKS
NORTH PLATTE   LGT SNOW  19  15  84 NW8       30.15R FOG     WCI   9
IMPERIAL       LGT SNOW  18  14  84 NW6       30.15R FOG     WCI  10
LEXINGTON      LGT SNOW  21  18  90 N10       30.14R WCI  10
MCCOOK         CLOUDY    19  16  88 NW8       30.16R FOG     WCI   9
OGALLALA       LGT SNOW  17  15  90 W3        30.14R
$$

NEZ005>010-023>029-035>040-094-270600-
NORTH CENTRAL NEBRASKA

CITY           SKY/WX    TMP DP  RH WIND       PRES   REMARKS
VALENTINE      LGT SNOW  17  13  84 NW7       30.15R FOG     WCI   8
AINSWORTH      LGT SNOW  17  15  92 N13       30.13R WCI   4
BROKEN BOW     LGT SNOW  20  16  84 N14       30.12S VSB 1   WCI   7
O`NEILL        LGT SNOW  20  19  96 NW10      30.13R WCI   9
ORD            LGT SNOW  20  16  84 N14       30.12R FOG     WCI   7
THEDFORD       LGT SNOW  19  17  91 NW9       30.13R WCI   9
$$

NEZ041-046>049-061>064-073>077-083>087-270600-
SOUTH CENTRAL NEBRASKA

CITY           SKY/WX    TMP DP  RH WIND       PRES   REMARKS
GRAND ISLAND   LGT SNOW  22  19  89 NW13      30.11S FOG     WCI  10
AURORA         LGT SNOW  23  21  93 N15       30.09R WCI  10
HASTINGS       FLURRIES  22  18  85 NW15      30.10R WCI   9
HEBRON         LGT SNOW  26  23  89 NW10      30.10R WCI  16
HOLDREGE       LGT SNOW  21  18  88 NW9G16    30.13R WCI  11
KEARNEY *      CLOUDY    21  18  86 NW12      30.12S WCI   9
YORK           LGT SNOW  25  23  93 N14       30.09R WCI  13
$$

NEZ011>018-030>034-042>045-270600-
NORTHEAST NEBRASKA

CITY           SKY/WX    TMP DP  RH WIND       PRES   REMARKS
NORFOLK        LGT SNOW  23  21  92 NW13      30.08R FOG     WCI  11
ALBION         LGT SNOW  22  19  87 N8        30.10R VSB 1   WCI  13
BLAIR          CLOUDY    31  29  93 NW12      30.01R FOG     WCI  22
COLUMBUS *     CLOUDY    25  18  74 N14       30.09R WCI  13
FREMONT        LGT SNOW  29  28  96 NW13      30.05R WCI  19
TEKAMAH        LGT SNOW  29  26  89 N15       30.05R FOG     WCI  18
WAYNE          LGT SNOW  24  22  91 N13       30.09R WCI  12
$$

NEZ050>053-065>068-078-088>093-270600-
SOUTHEAST NEBRASKA

CITY           SKY/WX    TMP DP  RH WIND       PRES   REMARKS
LINCOLN        LGT SNOW  30  27  88 NW13      30.07R FOG     WCI  20
OMAHA EPPLEY   LGT SNOW  32  30  92 NW10      30.03S FOG     WCI  24
BEATRICE       LGT SNOW  31  30  97 NW8       30.05R WCI  23
FALLS CITY     MIX PCPN  34  32  92 NW9       30.02R FOG     WCI  27
NEBRASKA CITY  CLOUDY    32  32 100 NW6       30.02R FOG     WCI  26
PLATTSMOUTH    MIX PCPN  32  30  94 NW7       30.01S WCI  25
$$

NEZ044-045-051>053-067-270600-
OMAHA AREA

CITY           SKY/WX    TMP DP  RH WIND       PRES   REMARKS
OMAHA EPPLEY   LGT SNOW  32  30  92 NW10      30.03S FOG     WCI  24
BLAIR          CLOUDY    31  29  93 NW12      30.01R FOG     WCI  22
FREMONT        LGT SNOW  29  28  96 NW13      30.05R WCI  19
MILLARD        FLURRIES  32  30  92 NW6       30.04R WCI  26
OFFUTT AFB     LGT RAIN  32  32 100 NW7       30.02R WCI  26
PLATTSMOUTH    MIX PCPN  32  30  94 NW7       30.01S WCI  25
WAHOO          LGT SNOW  29  27  90 NW12      30.06R WCI  20
$$


USA.gov is the U.S. government's official web portal to all federal, state and local government web resources and services.